Location: Bartrés
(43.1167°N, 0.0333°W)
Time: 00:09:33
(UTC+00:00)

Daily predictions for brighter satellites

Satellite Brightness Start Highest point End
(mag) Time Altitude Azimuth Time Altitude Azimuth Time Altitude Azimuth
Cosmos 2082 Rocket 4.2 00:08:34 10° WNW 00:11:36 15° W 00:11:39 15° W
Cosmos 2221 2.9 00:08:52 10° N 00:12:32 57° NE 00:12:32 57° NE
Cosmos 1447 Rocket 4.5 00:08:56 10° NNW 00:15:07 67° W 00:16:03 58° SW
Cosmos 2369 Rocket 2.5 00:15:02 50° WSW 00:16:06 59° WNW 00:21:39 10° NNE
Cosmos 1153 Rocket 4.5 00:16:19 60° SW 00:17:26 74° W 00:23:45 10° N
Cosmos 2173 Rocket 3.9 00:18:04 60° SE 00:18:58 69° E 00:25:03 10° NNE
BREEZE-M DEB (TANK) 4.5 00:19:11 61° SW 00:20:14 82° SSE 00:34:08 10° ENE
CENTAUR R/B 3.6 00:14:23 10° NNW 00:22:38 63° NE 00:30:38 15° SE
SL-8 R/B 4.2 00:21:56 34° WNW 00:23:46 57° NNW 00:28:31 10° ENE
Cosmos 44 Rocket 3.8 00:26:14 50° E 00:26:14 50° E 00:30:39 10° NE
Cosmos 2151 3.4 00:28:00 57° NE 00:28:00 57° NE 00:31:33 10° NNE
BREEZE-M DEB (TANK) 3.7 00:28:18 50° ENE 00:28:18 50° ENE 00:33:56 10° ENE
Cosmos 1624 Rocket 4.4 00:28:37 49° W 00:29:16 52° WNW 00:34:24 10° NNE
Cosmos 1954 Rocket 4.1 00:24:55 10° NNW 00:29:47 61° W 00:29:47 61° W
Iridium 4 Rocket 3.8 00:29:32 10° N 00:35:18 66° W 00:36:02 60° SW
H-2A R/B 2.5 00:32:46 10° N 00:36:11 52° NW 00:36:11 52° NW
Cosmos 1076 Rocket 4.0 00:38:29 55° ENE 00:38:29 55° ENE 00:42:19 10° NNE
Meteor 2-21 Rocket 4.3 00:33:55 10° N 00:40:06 86° W 00:41:13 62° S
Cosmos 1825 Rocket 4.1 00:40:45 49° NW 00:40:45 49° NW 00:44:32 10° N
Cosmos 1340 Rocket 3.5 00:38:46 10° N 00:41:54 52° NNE 00:41:54 52° NNE
Cosmos 1452 Rocket 3.6 00:43:06 62° ESE 00:43:18 63° ESE 00:48:30 10° NNE
Cosmos 2056 Rocket 4.4 00:42:46 35° W 00:43:48 39° WNW 00:48:42 10° N
USA 59 Rocket 1.4 00:50:38 24° NE 00:50:38 24° NE 00:51:57 10° NE
Lacrosse 4 Rocket 2.8 00:50:57 29° WNW 00:51:09 30° NW 00:54:49 10° N
Meteor 2-8 Rocket 4.3 00:53:23 61° SSW 00:54:31 83° W 01:00:36 10° N
Cosmos 1953 Rocket 3.9 00:56:15 58° WNW 00:56:15 58° WNW 01:00:25 10° N
USA 281 3.6 00:58:23 41° WSW 00:59:01 42° WSW 01:05:14 10° NW
Lacrosse 5 rocket 3.0 00:58:00 23° NW 00:59:04 26° NNW 01:02:27 10° NNE
Meteor 1-20 Rocket 4.5 00:58:41 50° SE 00:59:43 59° E 01:05:12 10° NNE
NOSS 3-2 (A) 4.3 00:55:17 10° NNW 01:02:46 70° NE 01:11:33 10° SE
Meteor 2-16 Rocket 4.4 00:58:19 10° NNW 01:04:24 66° W 01:05:29 55° SW
Cosmos 1331 Rocket 3.8 01:04:18 75° SSW 01:04:45 89° ESE 01:09:57 10° NNE
DELTA 2 R/B (1) 4.1 01:07:00 42° SE 01:07:00 42° SE 01:11:11 10° E
CZ-2C R/B 4.1 01:05:56 17° ESE 01:09:31 35° ENE 01:14:33 10° N
NOSS 2-1 (E) 4.3 01:13:34 34° N 01:13:34 34° N 01:15:30 10° NNE
COBE Rocket 3.7 01:07:54 10° NNE 01:12:49 76° E 01:13:15 70° SSE
SJ 16-02 2.1 01:10:02 10° N 01:14:16 47° ENE 01:15:14 39° ESE
CZ-4C R/B 4.2 01:10:16 10° WNW 01:16:23 25° WSW 01:16:37 25° WSW
MOZ.5/SAFIR/RUBIN 5/SL-8 4.2 01:16:45 46° ESE 01:17:46 57° ENE 01:22:19 10° N
SL-08 R/B 4.4 01:17:34 53° SSW 01:19:05 78° W 01:25:21 10° N
CZ-2D R/B 3.4 01:17:12 10° NE 01:21:46 30° E 01:23:29 25° SE
Cosmos 2016 Rocket 4.1 01:21:04 48° SW 01:22:44 64° W 01:29:01 10° N
Cosmos 1741 Rocket 3.9 01:18:11 10° NNW 01:23:28 71° WSW 01:24:04 64° SSW
Cosmos 2233 Rocket 3.9 01:22:17 50° S 01:24:05 90° SSW 01:30:24 10° N
NOSS 2-1 (D) 4.3 01:27:03 32° NNW 01:27:03 32° NNW 01:29:18 10° NNE
Meteor 1-10 Rocket 4.5 01:23:44 10° NNW 01:29:33 59° W 01:30:44 50° SW
ASTEX 1 3.4 01:30:27 59° WSW 01:30:52 61° W 01:35:47 10° NNW
Cosmos 1725 Rocket 4.4 01:32:37 41° WSW 01:34:22 52° WNW 01:40:31 10° N
Cosmos 1151 Rocket 3.8 01:31:27 10° N 01:35:39 47° ENE 01:36:54 36° SE
Meteor 1-27 Rocket 3.7 01:30:09 10° NNW 01:36:00 81° W 01:37:38 49° S
Lacrosse 5 2.4 01:31:47 10° NW 01:36:48 57° NE 01:41:47 10° ESE
COSMOS 2455 3.6 01:33:28 10° NW 01:38:45 34° WSW 01:38:45 34° WSW
USA 234 3.2 01:32:37 10° NE 01:39:11 75° SE 01:41:40 41° SSW
NPP 3.8 01:34:49 10° NNE 01:40:11 64° ESE 01:41:51 43° SSE
Meteor 1-25 Rocket 4.2 01:40:41 49° SSW 01:42:17 77° W 01:48:08 10° N
Helios 1A Rocket 3.1 01:44:43 54° WNW 01:44:43 54° WNW 01:48:05 10° NNW
Meteor 1-19 Rocket 4.3 01:39:45 10° NNW 01:45:34 66° W 01:47:18 45° SSW
H-2A R/B 3.9 01:43:13 10° NNE 01:47:10 50° E 01:47:46 46° SE
SL-16 R/B 4.1 01:41:54 10° SE 01:47:17 33° ENE 01:52:41 10° N
Cosmos 1302 Rocket 3.9 01:48:24 53° SSW 01:49:41 82° WNW 01:54:57 10° NNE
ADEOS II 3.2 01:45:23 10° NNE 01:50:14 37° E 01:52:43 24° SSE
ATLAS CENTAUR R/B 3.0 01:49:08 45° SSW 01:51:04 73° SE 02:00:00 10° NE
Resurs 1-4 Rocket 2.4 01:47:08 10° NNE 01:52:26 61° ESE 01:54:25 37° SSE
Cosmos 968 Rocket 3.6 01:47:39 10° NNW 01:52:43 51° WSW 01:53:23 48° SW
IDEFIX/ARIANE 42P 2.5 01:50:06 10° NNE 01:55:19 90° SSW 01:56:53 46° SSW
Cosmos 1464 Rocket 4.4 01:58:46 25° SSE 02:02:17 56° E 02:08:16 10° NNE
Cosmos 2227 Rocket 3.6 02:01:59 10° N 02:07:13 37° ENE 02:12:25 10° SE
Cosmos 1743 2.9 02:07:23 49° SE 02:08:01 58° E 02:11:37 10° NNE
Cosmos 1697 Rocket 3.4 02:06:26 26° SSE 02:09:05 44° ESE 02:14:24 10° NE
Meteor 1-5 Rocket 4.0 02:09:49 39° SSW 02:11:52 79° W 02:17:15 10° N
CENTAUR R/B 3.7 02:05:26 10° NW 02:13:19 41° WSW 02:17:38 27° SSW
Cosmos 1992 Rocket 3.9 02:20:06 37° SSW 02:22:12 84° WNW 02:27:26 10° NNE
Cosmos 967 Rocket 4.4 02:16:08 10° NW 02:22:26 64° WSW 02:27:58 13° SSE
Cosmos 2297 Rocket 2.1 02:17:10 10° NNW 02:22:51 89° W 02:28:31 10° SSE
Meteor 2-17 Rocket 4.4 02:18:48 10° N 02:24:59 86° E 02:29:42 18° S
CZ-2C R/B 2.9 02:23:03 10° N 02:27:46 67° WNW 02:29:40 35° SW
Cosmos 2344 3.8 02:23:33 24° WSW 02:28:15 59° NW 02:35:32 10° NNE
Meteor 2-4 Rocket 3.7 02:23:09 10° NNW 02:28:30 63° W 02:31:16 29° SSW
COSMOS 2441 4.4 02:28:17 10° N 02:33:10 72° WNW 02:35:26 32° SSW
Lacrosse 5 rocket 4.2 02:36:59 10° NNW 02:38:33 12° N 02:40:09 10° NNE
Cosmos 1707 4.2 02:35:39 10° N 02:38:58 32° ENE 02:42:16 10° SE
Cosmos 1656 4.4 02:39:14 24° WSW 02:42:00 41° WNW 02:47:12 10° NNE
Cosmos 1980 Rocket 3.3 02:38:29 14° S 02:42:51 39° ESE 02:48:06 10° NE
Cosmos 1626 3.0 02:40:23 10° NNW 02:42:44 26° W 02:42:44 26° W
USA 238 DEB 4.1 02:35:59 10° NW 02:43:26 79° NE 02:51:26 10° SE
USA 238 4.1 02:36:05 10° NW 02:43:31 78° NE 02:51:28 10° SE
Cosmos 1515 Rocket 4.5 02:40:29 10° N 02:44:47 48° ENE 02:49:02 10° SSE
Cosmos 1766 Rocket 3.6 02:44:24 31° SSW 02:46:25 66° W 02:50:49 10° N
Cosmos 482 Debris 2.8 02:44:02 10° WNW 02:46:58 83° SW 02:49:11 10° SE
USA 32 4.1 02:43:03 10° NNW 02:48:11 58° W 02:51:20 23° SSW
CZ-2C R/B 3.4 02:47:25 25° SW 02:49:42 35° W 02:54:49 10° NNW
Cosmos 1674 2.3 02:48:24 10° N 02:51:47 88° E 02:53:48 23° S
DELTA 2 R/B (1) 3.6 02:47:43 17° W 02:51:56 61° S 02:57:24 10° ESE
Cosmos 1400 Rocket 3.9 02:48:15 10° N 02:52:00 43° ENE 02:55:46 10° SSE
SJ 16-02 3.1 02:49:29 10° WNW 02:51:56 16° W 02:51:56 16° W
Cosmos 1726 1.7 02:51:38 43° SW 02:52:14 53° W 02:55:11 10° N
Meteor 1-28 Rocket 3.0 02:54:26 25° S 02:56:21 63° W 02:59:56 10° NNW
ATLAS 5 CENTAUR R/B 2.9 02:51:48 10° NNW 02:56:37 53° NE 03:02:34 10° SE
CZ-2D R/B 2.9 02:57:05 10° N 03:01:47 35° WNW 03:04:46 19° WSW
Tiangong -2.2 03:00:36 30° WSW 03:01:55 64° S 03:04:59 10° ESE
ALOS 2.2 02:58:52 10° N 03:03:29 74° WNW 03:06:41 20° SSW
Cosmos 1328 Rocket 4.0 03:02:00 10° NNW 03:06:12 43° W 03:08:52 20° SSW
AQUA 4.1 03:03:52 10° N 03:08:28 52° WNW 03:11:33 20° SW
Cosmos 1536 2.8 03:05:39 17° S 03:08:37 85° E 03:12:36 10° N
Cosmos 371 Rocket 3.3 03:06:09 10° NNW 03:10:57 61° WSW 03:15:42 10° S
SAR-Lupe-1 4.3 03:08:41 10° NNE 03:12:15 68° ESE 03:15:12 14° S
Cosmos 1500 Rocket 4.1 03:12:39 10° S 03:16:55 58° E 03:21:14 10° NNE
Cosmos 2219 3.5 03:13:11 10° NNW 03:18:52 72° ENE 03:24:33 10° SSE
Lacrosse 5 2.7 03:15:15 10° WNW 03:19:29 27° SW 03:23:43 10° S
NOSS 3-4 (C) 3.5 03:15:59 17° SW 03:20:10 62° NW 03:26:07 10° NNE
NOSS 3-4 (A) 3.5 03:16:27 17° SW 03:20:35 60° NW 03:26:28 10° NNE
Cosmos 1733 3.0 03:17:59 13° S 03:21:04 77° E 03:24:36 10° N
USA 234 4.2 03:15:50 10° NE 03:21:55 42° NNW 03:27:59 10° W
Cosmos 1340 2.9 03:21:55 20° SW 03:23:48 39° WNW 03:26:58 10° N
Cosmos 1867 4.0 03:20:32 10° NW 03:25:36 39° WSW 03:30:36 10° S
Cosmos 2369 4.0 03:21:39 10° SSW 03:27:17 67° ESE 03:32:58 10° NNE
KORONAS-FOTON 4.1 03:25:27 10° NNW 03:28:51 40° W 03:31:53 12° SSW
Cosmos 2034 Rocket 4.4 03:23:56 14° SSW 03:29:09 47° WNW 03:35:18 10° N
RESURS DK-1 3.8 03:26:06 10° S 03:29:43 33° ESE 03:33:22 10° NE
ADEOS II 3.2 03:25:12 10° N 03:29:43 30° WNW 03:33:35 13° WSW
Meteor 1-4 Rocket 3.9 03:27:14 10° N 03:29:52 32° ENE 03:32:28 10° SE
Meteor 2-10 4.0 03:25:13 10° S 03:30:20 84° E 03:35:23 10° NNE
SL-16 R/B 2.9 03:24:51 10° S 03:30:41 43° W 03:36:33 10° NNW
CZ-4 R/B 4.1 03:26:22 10° NNE 03:31:21 74° ESE 03:36:12 10° S
Resurs 1-4 Rocket 3.8 03:28:00 10° NNW 03:31:43 20° WNW 03:35:26 10° WSW
SAR-Lupe-4 3.7 03:29:30 10° N 03:32:59 56° WNW 03:36:00 13° SSW
Cosmos 1503 Rocket 4.0 03:33:34 10° NNW 03:38:40 62° WSW 03:43:46 10° S
UNK 4.1 03:35:56 10° S 03:40:15 44° W 03:44:36 10° NNW
H-2A R/B 3.6 03:36:38 10° NNE 03:41:03 32° E 03:45:24 10° SSE
Cosmos 2263 Rocket 2.3 03:36:50 10° NNW 03:42:29 82° ENE 03:48:08 10° SSE
Cosmos 1805 Rocket 3.6 03:38:03 10° S 03:42:29 87° W 03:46:57 10° N
Cosmos 1805 3.4 03:40:50 10° S 03:44:28 68° E 03:48:08 10° NNE
Meteor 2-9 Rocket 4.3 03:40:15 10° SSW 03:46:03 79° W 03:51:45 10° N
Cosmos 1356 Rocket 3.2 03:43:49 10° NNW 03:47:45 84° W 03:51:39 10° S
SL-8 R/B 3.8 03:44:45 10° WNW 03:49:34 82° NNE 03:54:23 10° ESE
Cosmos 2227 Rocket 2.8 03:46:10 10° NW 03:51:11 34° WSW 03:56:09 10° SSW
Cosmos 2026 Rocket 4.3 03:45:46 10° NNW 03:51:47 50° W 03:57:51 10° SSW
Cosmos 1697 Rocket 3.8 03:48:19 10° WSW 03:53:11 30° NW 03:58:06 10° N
Cosmos 1408 Rocket 4.2 03:52:37 10° SW 03:56:40 37° WNW 04:00:43 10° N
CZ-2C R/B 2.5 03:52:54 10° N 03:57:50 76° WNW 04:02:53 10° SSW
Atlas Centaur 2 4.1 03:52:35 10° SW 03:59:09 27° S 04:05:12 10° ESE
SL-14 R/B 3.6 03:55:44 10° N 03:59:43 72° E 04:03:38 10° SSE
USA-17 4.4 03:57:21 10° NW 04:00:30 61° SW 04:04:19 10° SSE
Cosmos 2297 Rocket 4.0 04:03:49 10° WNW 04:06:00 12° W 04:08:11 10° WSW
Cosmos 1634 Rocket 4.4 04:00:55 10° SSW 04:06:48 45° WNW 04:12:42 10° N
Envisat 3.7 04:02:17 10° N 04:06:58 38° WNW 04:11:37 10° SW
BREEZE-M DEB (TANK) 3.9 03:54:35 10° WNW 04:08:46 51° SW 04:12:28 10° SSE
